Regional Weather Roundup
Issued by NWS Albany, NY

Home | Current Version | Previous Version | Text Only | Print | Product List | Glossary On
Versions: 1 2 3 4 5 6 7 8 9 10 11 12 13 14 15 16 17 18 19 20 21 22 23 24 25 26 27 28 29 30 31 32 33 34 35 36 37 38 39 40 41 42 43 44 45
000
ASUS41 KALY 220310
RWRALY

NEW YORK STATE HOURLY WEATHER ROUNDUP
NATIONAL WEATHER SERVICE ALBANY NY
1000 PM EST SUN DEC 21 2014

NOTE: "FAIR" INDICATES FEW OR NO CLOUDS BELOW 12,000 FEET WITH NO
SIGNIFICANT WEATHER AND/OR NO OBSTRUCTIONS TO VISIBILITY.

NYZ032-033-038>043-046>054-057>066-NYZ062>081-220400-
EAST


CITY           SKY/WX    TMP DP  RH WIND       PRES   REMARKS
ALBANY         CLOUDY    30  24  78 CALM      30.37S
GLENS FALLS    CLOUDY    27  22  81 CALM      30.38R
POUGHKEEPSIE   LGT SNOW  32  27  81 N3        30.35S
NEWBURGH       CLOUDY    32  28  86 CALM      30.34F
MONTGOMERY     CLOUDY    32  27  81 NE5       30.33S WCI  27
WHITE PLAINS   CLOUDY    32  29  88 N7        30.31S WCI  26
ISLIP          CLOUDY    36  32  85 N10       30.30F WCI  28
NEW YORK CITY  CLOUDY    35  29  78 N5        30.33F WCI  31
CENTRAL PARK   FLURRIES  34  29  82 N6        30.35F WCI  29
$$

NYZ005>009-017-018-044>046-055-056-220400-
CENTRAL


CITY           SKY/WX    TMP DP  RH WIND       PRES   REMARKS
FULTON         CLOUDY    30  25  81 CALM      30.34R
SYRACUSE       FLURRIES  30  26  85 CALM      30.34S
ROME           CLOUDY    30  23  75 E3        30.36S
ELMIRA         CLOUDY    31  21  66 CALM      30.29F
BINGHAMTON     CLOUDY    26  20  77 E3        30.27S
MONTICELLO     CLOUDY    28  27  93 E5        30.29S WCI  23
$$

NYZ026>034-041>043-220400-
NORTH


CITY           SKY/WX    TMP DP  RH WIND       PRES   REMARKS
WATERTOWN      CLOUDY    27  20  75 NE5       30.35R WCI  22
FORT DRUM      NOT AVBL
MASSENA        CLOUDY    18  15  88 CALM      30.40S
SARANAC LAKE   CLOUDY    20 N/A N/A CALM      30.26S
PLATTSBURGH    CLOUDY    21  18  88 CALM      30.39S FOG
$$

NYZ001>004-010>016-019>021-220400-
WEST


CITY           SKY/WX    TMP DP  RH WIND       PRES   REMARKS
NIAGARA FALLS  CLOUDY    31  21  66 CALM      30.28F
BUFFALO        CLOUDY    31  22  69 S6        30.28F WCI  25
DUNKIRK        CLOUDY    30  23  75 SE8       30.27F WCI  22
JAMESTOWN      CLOUDY    27  19  74 SE6       30.21S WCI  20
WELLSVILLE     CLOUDY    25  21  85 SE8       30.22S WCI  16
ROCHESTER      CLOUDY    32  21  64 E3        30.31F
PENN YAN       CLOUDY    30  21  69 SE3       30.29F
$$

             KEY
       WCI = WIND CHILL INDEX
       VSB = VISIBILITY
       HX  = HEAT INDEX
$$


USA.gov is the U.S. government's official web portal to all federal, state and local government web resources and services.